Location: Trebic
(49.2170°N, 15.8830°E)
Time: 22:30:57
(UTC+02:00)

Transit 2A Rocket - Pass Details

Date: 31 July 2019
Orbit: 591 x 913 km, 66.7° (Epoch: 25 August)

Event Time Altitude Azimuth Distance (km) Brightness Sun altitude
Rises 05:27:34 0° 295° (WNW) 3,379 8.0 -0.7°
Reaches altitude 10° 05:31:47 10° 325° (NW) 2,367 7.5 -0.1°
Maximum altitude 05:33:58 12° 349° (NNW) 2,162 7.6 0.2°
Drops below altitude 10° 05:36:06 10° 13° (NNE) 2,278 8.1 0.5°
Sets 05:39:58 0° 43° (NE) 3,116 9.8 1.1°
